| time (UTC) | temp C | wind direction | speed KPH | gust KPH | rain 1hr cm | rain 24hr cm | rain mn cm | humidity % | barometer mb |
| 20260905130208 | 16 | 135 | 1.6 | 1.6 | 0.00 | 0.00 | 0.00 | 95 | 1014.4 |
| 20260905125703 | 16 | 182 | 1.6 | 1.6 | 0.00 | 0.00 | 0.00 | 95 | 1014.8 |
| 20260905125158 | 16 | 170 | 0.0 | 0.0 | 0.00 | 0.00 | 0.00 | 95 | 1014.8 |
| 20260905124654 | 16 | 170 | 0.0 | 0.0 | 0.00 | 0.00 | 0.00 | 95 | 1014.7 |
| 20260905124150 | 16 | 170 | 0.0 | 0.0 | 0.00 | 0.00 | 0.00 | 95 | 1014.9 |
| 20260905123645 | 16 | 162 | 0.0 | 0.0 | 0.00 | 0.00 | 0.00 | 95 | 1015.0 |
| 20260905123142 | 15 | 185 | 0.0 | 0.0 | 0.00 | 0.00 | 0.00 | 95 | 1015.1 |
| 20260905122641 | 15 | 199 | 1.6 | 1.6 | 0.00 | 0.00 | 0.00 | 95 | 1015.0 |
| 20260905122136 | 15 | 187 | 0.0 | 0.0 | 0.00 | 0.00 | 0.00 | 95 | 1015.0 |
| 20260905121631 | 15 | 200 | 1.6 | 1.6 | 0.00 | 0.00 | 0.00 | 95 | 1014.9 |
| 20260905121127 | 14 | 180 | 0.0 | 0.0 | 0.00 | 0.00 | 0.00 | 95 | 1014.9 |
| 20260905120625 | 14 | 180 | 0.0 | 0.0 | 0.00 | 0.00 | 0.00 | 95 | 1014.6 |
| 20260905120121 | 14 | 205 | 1.6 | 1.6 | 0.00 | 0.00 | 0.00 | 95 | 1014.6 |
| 20260905115620 | 15 | 180 | 0.0 | 0.0 | 0.00 | 0.00 | 0.00 | 95 | 1014.7 |
| 20260905115115 | 15 | 197 | 0.0 | 0.0 | 0.00 | 0.00 | 0.00 | 95 | 1014.6 |
| 20260905114614 | 15 | 164 | 0.0 | 0.0 | 0.00 | 0.00 | 0.00 | 95 | 1014.3 |
| 20260905114113 | 14 | 129 | 0.0 | 1.6 | 0.00 | 0.00 | 0.00 | 95 | 1014.1 |
| 20260905113609 | 14 | 173 | 0.0 | 0.0 | 0.00 | 0.00 | 0.00 | 95 | 1014.4 |
| 20260905113104 | 14 | 155 | 0.0 | 0.0 | 0.00 | 0.00 | 0.00 | 95 | 1014.5 |
| 20260905112558 | 14 | 212 | 0.0 | 0.0 | 0.00 | 0.00 | 0.00 | 95 | 1014.3 |
| 20260905112054 | 14 | 189 | 0.0 | 0.0 | 0.00 | 0.00 | 0.00 | 95 | 1014.3 |
| 20260905111549 | 14 | 114 | 3.2 | 3.2 | 0.00 | 0.00 | 0.00 | 95 | 1014.2 |
| 20260905111048 | 14 | 67 | 1.6 | 3.2 | 0.00 | 0.00 | 0.00 | 95 | 1014.0 |
| 20260905110547 | 14 | 178 | 0.0 | 0.0 | 0.00 | 0.00 | 0.00 | 95 | 1014.3 |
| 20260905110043 | 14 | 189 | 0.0 | 0.0 | 0.00 | 0.00 | 0.00 | 95 | 1014.4 |
| 20260905105542 | 14 | 207 | 0.0 | 0.0 | 0.00 | 0.00 | 0.00 | 95 | 1014.1 |
| 20260905105042 | 13 | 185 | 0.0 | 0.0 | 0.00 | 0.00 | 0.00 | 95 | 1013.9 |
| 20260905104538 | 13 | 199 | 0.0 | 0.0 | 0.00 | 0.00 | 0.00 | 95 | 1013.8 |
| 20260905104037 | 13 | 192 | 0.0 | 0.0 | 0.00 | 0.00 | 0.00 | 95 | 1013.7 |
| 20260905103533 | 13 | 180 | 0.0 | 0.0 | 0.00 | 0.00 | 0.00 | 95 | 1013.6 |
| 20260905103029 | 13 | 200 | 0.0 | 0.0 | 0.00 | 0.00 | 0.00 | 95 | 1013.7 |
| 20260905102524 | 13 | 189 | 0.0 | 0.0 | 0.00 | 0.00 | 0.00 | 95 | 1013.8 |
| 20260905102021 | 13 | 175 | 0.0 | 0.0 | 0.00 | 0.00 | 0.00 | 95 | 1013.5 |
| 20260905101519 | 13 | 182 | 0.0 | 0.0 | 0.00 | 0.00 | 0.00 | 95 | 1013.8 |
| 20260905101017 | 13 | 153 | 0.0 | 0.0 | 0.00 | 0.00 | 0.00 | 95 | 1013.8 |
| 20260905100514 | 13 | 153 | 0.0 | 0.0 | 0.00 | 0.00 | 0.00 | 95 | 1013.6 |
| 20260905100008 | 13 | 152 | 0.0 | 0.0 | 0.00 | 0.00 | 0.00 | 95 | 1013.5 |
| 20260905095503 | 13 | 152 | 0.0 | 0.0 | 0.00 | 0.00 | 0.00 | 95 | 1013.4 |
| 20260905094957 | 13 | 152 | 0.0 | 0.0 | 0.00 | 0.00 | 0.00 | 95 | 1013.4 |
| 20260905094453 | 13 | 152 | 0.0 | 0.0 | 0.00 | 0.00 | 0.00 | 95 | 1013.3 |
| 20260905093951 | 13 | 152 | 0.0 | 0.0 | 0.00 | 0.00 | 0.00 | 95 | 1013.3 |
| 20260905093447 | 13 | 154 | 0.0 | 0.0 | 0.00 | 0.00 | 0.00 | 95 | 1013.1 |
| 20260905092943 | 13 | 153 | 0.0 | 0.0 | 0.00 | 0.00 | 0.00 | 95 | 1013.5 |
| 20260905092438 | 13 | 144 | 0.0 | 0.0 | 0.00 | 0.00 | 0.00 | 95 | 1013.4 |
| 20260905091932 | 13 | 144 | 0.0 | 0.0 | 0.00 | 0.00 | 0.00 | 95 | 1013.4 |
| 20260905091427 | 13 | 144 | 0.0 | 0.0 | 0.00 | 0.00 | 0.00 | 95 | 1013.4 |
| 20260905090926 | 13 | 144 | 0.0 | 0.0 | 0.00 | 0.00 | 0.00 | 95 | 1013.5 |
| 20260905090422 | 13 | 143 | 0.0 | 0.0 | 0.00 | 0.00 | 0.00 | 95 | 1013.6 |
| 20260905085921 | 13 | 142 | 0.0 | 0.0 | 0.00 | 0.00 | 0.00 | 95 | 1013.5 |
| 20260905085420 | 13 | 151 | 0.0 | 0.0 | 0.00 | 0.00 | 0.00 | 95 | 1013.6 |
| 20260905084917 | 13 | 166 | 0.0 | 0.0 | 0.00 | 0.00 | 0.00 | 95 | 1013.6 |
| 20260905084416 | 13 | 148 | 0.0 | 0.0 | 0.00 | 0.00 | 0.00 | 95 | 1013.5 |
| 20260905083911 | 13 | 145 | 0.0 | 0.0 | 0.00 | 0.00 | 0.00 | 95 | 1013.4 |
| 20260905083407 | 13 | 172 | 0.0 | 0.0 | 0.00 | 0.00 | 0.00 | 95 | 1013.5 |
| 20260905082902 | 13 | 171 | 0.0 | 0.0 | 0.00 | 0.00 | 0.00 | 95 | 1013.4 |
| 20260905082358 | 13 | 171 | 0.0 | 0.0 | 0.00 | 0.00 | 0.00 | 95 | 1013.6 |
| 20260905081853 | 13 | 171 | 0.0 | 0.0 | 0.00 | 0.00 | 0.00 | 95 | 1013.3 |
| 20260905081348 | 13 | 171 | 0.0 | 0.0 | 0.00 | 0.00 | 0.00 | 95 | 1013.5 |
| 20260905080846 | 13 | 172 | 0.0 | 0.0 | 0.00 | 0.00 | 0.00 | 95 | 1013.4 |
| 20260905080341 | 13 | 171 | 0.0 | 0.0 | 0.00 | 0.00 | 0.00 | 95 | 1013.4 |
| 20260905075839 | 13 | 172 | 0.0 | 0.0 | 0.00 | 0.00 | 0.00 | 95 | 1013.7 |
| 20260905075334 | 13 | 171 | 0.0 | 0.0 | 0.00 | 0.00 | 0.00 | 95 | 1013.9 |
| 20260905074833 | 13 | 171 | 0.0 | 0.0 | 0.00 | 0.00 | 0.00 | 95 | 1013.6 |
| 20260905074329 | 13 | 182 | 0.0 | 0.0 | 0.00 | 0.00 | 0.00 | 95 | 1013.7 |
| 20260905073825 | 13 | 182 | 0.0 | 0.0 | 0.00 | 0.00 | 0.00 | 95 | 1013.6 |
| 20260905073319 | 13 | 183 | 0.0 | 0.0 | 0.00 | 0.00 | 0.00 | 95 | 1013.6 |
| 20260905072814 | 14 | 182 | 0.0 | 0.0 | 0.00 | 0.00 | 0.00 | 95 | 1013.6 |
| 20260905072309 | 14 | 176 | 0.0 | 0.0 | 0.00 | 0.00 | 0.00 | 95 | 1013.8 |
| 20260905071806 | 14 | 175 | 0.0 | 0.0 | 0.00 | 0.00 | 0.00 | 95 | 1013.6 |
| 20260905071302 | 13 | 175 | 0.0 | 0.0 | 0.00 | 0.00 | 0.00 | 95 | 1013.6 |
| 20260905070756 | 14 | 174 | 0.0 | 0.0 | 0.00 | 0.00 | 0.00 | 95 | 1013.8 |
| 20260905070252 | 14 | 174 | 0.0 | 0.0 | 0.00 | 0.00 | 0.00 | 95 | 1013.6 |
| 20260905065751 | 14 | 174 | 0.0 | 0.0 | 0.00 | 0.00 | 0.00 | 95 | 1013.9 |
| 20260905065244 | 15 | 174 | 0.0 | 0.0 | 0.00 | 0.00 | 0.00 | 95 | 1014.1 |
| 20260905064740 | 15 | 174 | 0.0 | 0.0 | 0.00 | 0.00 | 0.00 | 95 | 1014.0 |
| 20260905064235 | 15 | 193 | 0.0 | 0.0 | 0.00 | 0.00 | 0.00 | 95 | 1013.5 |
| 20260905063728 | 15 | 187 | 0.0 | 0.0 | 0.00 | 0.00 | 0.00 | 95 | 1013.9 |
| 20260905063224 | 15 | 189 | 0.0 | 0.0 | 0.00 | 0.00 | 0.00 | 95 | 1014.0 |
| 20260905062720 | 15 | 188 | 0.0 | 0.0 | 0.00 | 0.00 | 0.00 | 95 | 1013.9 |
| 20260905062220 | 15 | 187 | 0.0 | 0.0 | 0.00 | 0.00 | 0.00 | 95 | 1014.1 |
| 20260905061714 | 15 | 183 | 0.0 | 0.0 | 0.00 | 0.00 | 0.00 | 95 | 1014.2 |
| 20260905061209 | 15 | 183 | 0.0 | 0.0 | 0.00 | 0.00 | 0.00 | 95 | 1014.3 |
| 20260905060704 | 15 | 154 | 0.0 | 0.0 | 0.00 | 0.00 | 0.00 | 95 | 1014.0 |
| 20260905060201 | 15 | 196 | 0.0 | 0.0 | 0.00 | 0.00 | 0.00 | 95 | 1014.1 |
| 20260905055659 | 15 | 196 | 0.0 | 0.0 | 0.00 | 0.00 | 0.00 | 95 | 1014.1 |
| 20260905055154 | 15 | 195 | 0.0 | 0.0 | 0.00 | 0.00 | 0.00 | 95 | 1014.2 |
| 20260905054649 | 15 | 195 | 0.0 | 0.0 | 0.00 | 0.00 | 0.00 | 95 | 1014.0 |
| 20260905054145 | 15 | 195 | 0.0 | 0.0 | 0.00 | 0.00 | 0.00 | 95 | 1014.1 |
| 20260905053645 | 15 | 196 | 0.0 | 0.0 | 0.00 | 0.00 | 0.00 | 95 | 1014.3 |
| 20260905053140 | 15 | 194 | 0.0 | 0.0 | 0.00 | 0.00 | 0.00 | 95 | 1014.2 |
| 20260905052639 | 15 | 178 | 0.0 | 0.0 | 0.00 | 0.00 | 0.00 | 95 | 1014.2 |
| 20260905052135 | 15 | 167 | 0.0 | 0.0 | 0.00 | 0.00 | 0.00 | 95 | 1014.2 |
| 20260905051629 | 15 | 167 | 0.0 | 0.0 | 0.00 | 0.00 | 0.00 | 95 | 1014.6 |
| 20260905051126 | 15 | 166 | 0.0 | 0.0 | 0.00 | 0.00 | 0.00 | 95 | 1014.2 |
| 20260905050622 | 15 | 194 | 0.0 | 0.0 | 0.00 | 0.00 | 0.00 | 95 | 1014.3 |
| 20260905050119 | 15 | 193 | 0.0 | 0.0 | 0.00 | 0.00 | 0.00 | 95 | 1014.4 |
| 20260905045618 | 15 | 186 | 0.0 | 0.0 | 0.00 | 0.00 | 0.00 | 95 | 1014.4 |
| 20260905045113 | 15 | 188 | 0.0 | 0.0 | 0.00 | 0.00 | 0.00 | 95 | 1014.4 |
| 20260905044608 | 15 | 197 | 0.0 | 0.0 | 0.00 | 0.00 | 0.00 | 95 | 1014.4 |
| 20260905044103 | 15 | 157 | 0.0 | 0.0 | 0.00 | 0.00 | 0.00 | 95 | 1014.5 |
| 20260905043601 | 15 | 181 | 0.0 | 0.0 | 0.00 | 0.00 | 0.00 | 95 | 1014.3 |
| 20260905043057 | 15 | 181 | 0.0 | 0.0 | 0.00 | 0.00 | 0.00 | 95 | 1014.4 |
| 20260905042555 | 15 | 181 | 0.0 | 0.0 | 0.00 | 0.00 | 0.00 | 95 | 1014.5 |
| 20260905042051 | 15 | 181 | 0.0 | 0.0 | 0.00 | 0.00 | 0.00 | 95 | 1014.6 |
| 20260905041546 | 15 | 184 | 0.0 | 0.0 | 0.00 | 0.00 | 0.00 | 95 | 1014.6 |
| 20260905041042 | 15 | 183 | 0.0 | 0.0 | 0.00 | 0.00 | 0.00 | 95 | 1014.5 |
| 20260905040541 | 16 | 187 | 0.0 | 0.0 | 0.00 | 0.00 | 0.00 | 95 | 1014.6 |
| 20260905040040 | 15 | 178 | 0.0 | 0.0 | 0.00 | 0.91 | 0.91 | 94 | 1014.6 |
| 20260905035535 | 16 | 174 | 0.0 | 0.0 | 0.00 | 0.91 | 0.91 | 94 | 1014.6 |
| 20260905035032 | 16 | 166 | 0.0 | 0.0 | 0.00 | 0.91 | 0.91 | 94 | 1014.6 |
| 20260905034527 | 16 | 176 | 0.0 | 0.0 | 0.00 | 0.91 | 0.91 | 94 | 1014.5 |
| 20260905034027 | 16 | 168 | 0.0 | 0.0 | 0.00 | 0.91 | 0.91 | 94 | 1014.6 |
| 20260905033521 | 16 | 167 | 0.0 | 0.0 | 0.00 | 0.91 | 0.91 | 93 | 1014.3 |
| 20260905033017 | 16 | 167 | 0.0 | 0.0 | 0.00 | 0.91 | 0.91 | 93 | 1014.6 |
| 20260905032512 | 16 | 167 | 0.0 | 0.0 | 0.00 | 0.91 | 0.91 | 93 | 1014.6 |
| 20260905032007 | 16 | 167 | 0.0 | 0.0 | 0.00 | 0.91 | 0.91 | 93 | 1014.5 |
| 20260905031503 | 16 | 167 | 0.0 | 0.0 | 0.00 | 0.91 | 0.91 | 93 | 1014.7 |
| 20260905030957 | 16 | 167 | 0.0 | 0.0 | 0.00 | 0.91 | 0.91 | 93 | 1014.4 |
| 20260905030453 | 16 | 168 | 0.0 | 0.0 | 0.00 | 0.91 | 0.91 | 92 | 1014.6 |
| 20260905025951 | 16 | 167 | 0.0 | 0.0 | 0.00 | 0.91 | 0.91 | 92 | 1014.4 |
| 20260905025448 | 16 | 168 | 0.0 | 0.0 | 0.00 | 0.91 | 0.91 | 92 | 1014.4 |
| 20260905024944 | 16 | 151 | 0.0 | 0.0 | 0.00 | 0.91 | 0.91 | 92 | 1014.5 |
| 20260905024444 | 16 | 150 | 0.0 | 0.0 | 0.00 | 0.91 | 0.91 | 92 | 1014.6 |
| 20260905023940 | 16 | 135 | 1.6 | 1.6 | 0.00 | 0.91 | 0.91 | 92 | 1014.5 |
| 20260905023434 | 16 | 129 | 1.6 | 3.2 | 0.00 | 0.91 | 0.91 | 91 | 1014.5 |
| 20260905022933 | 17 | 143 | 0.0 | 0.0 | 0.00 | 0.91 | 0.91 | 91 | 1014.2 |
| 20260905022429 | 17 | 154 | 0.0 | 1.6 | 0.00 | 0.91 | 0.91 | 90 | 1014.4 |
| 20260905021924 | 17 | 155 | 0.0 | 0.0 | 0.00 | 0.91 | 0.91 | 90 | 1014.6 |
| 20260905021424 | 17 | 158 | 0.0 | 0.0 | 0.00 | 0.91 | 0.91 | 90 | 1014.5 |
| 20260905020919 | 17 | 164 | 0.0 | 0.0 | 0.00 | 0.91 | 0.91 | 89 | 1014.4 |
| 20260905020418 | 17 | 163 | 0.0 | 0.0 | 0.00 | 0.91 | 0.91 | 89 | 1014.5 |
| 20260905015913 | 17 | 93 | 1.6 | 1.6 | 0.00 | 0.91 | 0.91 | 89 | 1014.2 |
| 20260905015411 | 18 | 142 | 0.0 | 0.0 | 0.00 | 0.91 | 0.91 | 89 | 1014.8 |
| 20260905014910 | 18 | 105 | 0.0 | 0.0 | 0.00 | 0.91 | 0.91 | 89 | 1014.8 |
| 20260905014406 | 18 | 152 | 0.0 | 0.0 | 0.00 | 0.91 | 0.91 | 89 | 1014.8 |
| 20260905013901 | 18 | 152 | 0.0 | 0.0 | 0.00 | 0.91 | 0.91 | 88 | 1014.8 |
| 20260905013357 | 18 | 153 | 0.0 | 0.0 | 0.00 | 0.91 | 0.91 | 88 | 1014.8 |
| 20260905012852 | 18 | 156 | 0.0 | 0.0 | 0.00 | 0.91 | 0.91 | 88 | 1014.8 |
| 20260905012348 | 18 | 137 | 0.0 | 0.0 | 0.00 | 0.91 | 0.91 | 88 | 1014.8 |
| 20260905011844 | 18 | 150 | 0.0 | 0.0 | 0.00 | 0.91 | 0.91 | 88 | 1014.8 |
| 20260905011339 | 18 | 150 | 0.0 | 0.0 | 0.00 | 0.91 | 0.91 | 88 | 1014.4 |
| 20260905010835 | 18 | 149 | 0.0 | 0.0 | 0.00 | 0.91 | 0.91 | 87 | 1014.5 |
| 20260905010330 | 18 | 150 | 0.0 | 0.0 | 0.00 | 0.91 | 0.91 | 87 | 1014.4 |
| 20260905005826 | 18 | 150 | 0.0 | 0.0 | 0.00 | 0.91 | 0.91 | 87 | 1014.3 |
| 20260905005322 | 18 | 150 | 0.0 | 0.0 | 0.00 | 0.91 | 0.91 | 87 | 1014.5 |
| 20260905004816 | 18 | 150 | 0.0 | 0.0 | 0.00 | 0.91 | 0.91 | 87 | 1014.5 |
| 20260905004311 | 18 | 150 | 0.0 | 0.0 | 0.00 | 0.91 | 0.91 | 87 | 1014.6 |
| 20260905003806 | 18 | 111 | 0.0 | 0.0 | 0.00 | 0.91 | 0.91 | 87 | 1014.4 |
| 20260905003303 | 18 | 147 | 0.0 | 0.0 | 0.00 | 0.91 | 0.91 | 87 | 1014.5 |
| 20260905002758 | 19 | 150 | 0.0 | 0.0 | 0.00 | 0.91 | 0.91 | 86 | 1014.3 |
| 20260905002257 | 19 | 156 | 0.0 | 0.0 | 0.00 | 0.91 | 0.91 | 86 | 1014.4 |
| 20260905001752 | 19 | 157 | 0.0 | 0.0 | 0.00 | 0.91 | 0.91 | 85 | 1014.2 |
| 20260905001252 | 19 | 157 | 0.0 | 0.0 | 0.00 | 0.91 | 0.91 | 84 | 1014.4 |
| 20260905000747 | 19 | 144 | 0.0 | 0.0 | 0.00 | 0.91 | 0.91 | 84 | 1014.2 |
| 20260905000243 | 19 | 159 | 0.0 | 0.0 | 0.00 | 0.91 | 0.91 | 83 | 1014.2 |
| 20260904235738 | 19 | 158 | 0.0 | 0.0 | 0.00 | 0.91 | 0.91 | 84 | 1014.1 |
| 20260904235232 | 19 | 182 | 0.0 | 0.0 | 0.00 | 0.91 | 0.91 | 84 | 1014.2 |
| 20260904234727 | 19 | 147 | 0.0 | 0.0 | 0.00 | 0.91 | 0.91 | 82 | 1014.1 |
| 20260904234222 | 19 | 109 | 0.0 | 0.0 | 0.00 | 0.91 | 0.91 | 82 | 1013.9 |
| 20260904233718 | 20 | 148 | 0.0 | 0.0 | 0.00 | 0.91 | 0.91 | 82 | 1014.2 |
| 20260904233214 | 20 | 148 | 0.0 | 0.0 | 0.00 | 0.91 | 0.91 | 82 | 1014.0 |
| 20260904232711 | 20 | 156 | 0.0 | 0.0 | 0.00 | 0.91 | 0.91 | 82 | 1014.0 |
| 20260904232207 | 20 | 172 | 0.0 | 0.0 | 0.00 | 0.91 | 0.91 | 81 | 1014.2 |
| 20260904231702 | 20 | 150 | 0.0 | 0.0 | 0.00 | 0.91 | 0.91 | 81 | 1014.1 |
| 20260904231157 | 20 | 107 | 1.6 | 3.2 | 0.00 | 0.91 | 0.91 | 80 | 1014.1 |
| 20260904230657 | 20 | 106 | 1.6 | 1.6 | 0.00 | 0.91 | 0.91 | 81 | 1013.9 |
| 20260904230152 | 20 | 143 | 1.6 | 1.6 | 0.00 | 0.91 | 0.91 | 80 | 1014.1 |
| 20260904225650 | 21 | 100 | 1.6 | 3.2 | 0.00 | 0.91 | 0.91 | 80 | 1013.9 |
| 20260904225145 | 21 | 110 | 1.6 | 1.6 | 0.00 | 0.91 | 0.91 | 78 | 1013.8 |
| 20260904224639 | 21 | 125 | 1.6 | 1.6 | 0.00 | 0.91 | 0.91 | 77 | 1013.6 |
| 20260904224139 | 21 | 116 | 1.6 | 1.6 | 0.00 | 0.91 | 0.91 | 76 | 1013.7 |
| 20260904223633 | 22 | 80 | 1.6 | 3.2 | 0.00 | 0.91 | 0.91 | 75 | 1013.8 |
| 20260904223129 | 22 | 101 | 1.6 | 3.2 | 0.00 | 0.91 | 0.91 | 73 | 1014.0 |
| 20260904222625 | 22 | 152 | 1.6 | 1.6 | 0.00 | 0.91 | 0.91 | 74 | 1013.9 |
| 20260904222120 | 22 | 144 | 1.6 | 1.6 | 0.00 | 0.91 | 0.91 | 73 | 1013.7 |
| 20260904221620 | 22 | 141 | 0.0 | 0.0 | 0.00 | 0.91 | 0.91 | 72 | 1013.8 |
| 20260904221119 | 22 | 147 | 0.0 | 0.0 | 0.00 | 0.91 | 0.91 | 72 | 1013.7 |
| 20260904220614 | 22 | 171 | 0.0 | 0.0 | 0.00 | 0.91 | 0.91 | 71 | 1013.7 |
| 20260904220110 | 23 | 81 | 3.2 | 3.2 | 0.00 | 0.91 | 0.91 | 70 | 1013.5 |
| 20260904215609 | 23 | 93 | 1.6 | 3.2 | 0.00 | 0.91 | 0.91 | 69 | 1013.6 |
| 20260904215106 | 23 | 125 | 1.6 | 1.6 | 0.00 | 0.91 | 0.91 | 68 | 1013.7 |
| 20260904214600 | 25 | 261 | 3.2 | 4.8 | 0.00 | 0.91 | 0.91 | 65 | 1013.5 |
| 20260904214056 | 25 | 237 | 3.2 | 3.2 | 0.00 | 0.91 | 0.91 | 65 | 1013.5 |
| 20260904213554 | 25 | 276 | 6.4 | 8.0 | 0.00 | 0.91 | 0.91 | 62 | 1013.5 |
| 20260904213051 | 25 | 291 | 6.4 | 11.3 | 0.00 | 0.91 | 0.91 | 63 | 1013.4 |
| 20260904212550 | 25 | 197 | 1.6 | 1.6 | 0.00 | 0.91 | 0.91 | 64 | 1013.7 |
| 20260904212045 | 25 | 275 | 6.4 | 9.7 | 0.00 | 0.91 | 0.91 | 63 | 1013.5 |
| 20260904211545 | 24 | 269 | 11.3 | 11.3 | 0.00 | 0.91 | 0.91 | 63 | 1013.6 |
| 20260904211040 | 25 | 228 | 6.4 | 8.0 | 0.00 | 0.91 | 0.91 | 62 | 1013.5 |
| 20260904210539 | 25 | 184 | 1.6 | 1.6 | 0.00 | 0.91 | 0.91 | 64 | 1013.4 |
| 20260904210037 | 25 | 192 | 3.2 | 4.8 | 0.00 | 0.91 | 0.91 | 61 | 1013.7 |
| 20260904205536 | 25 | 248 | 6.4 | 8.0 | 0.00 | 0.91 | 0.91 | 62 | 1013.4 |
| 20260904205033 | 25 | 250 | 6.4 | 8.0 | 0.00 | 0.91 | 0.91 | 61 | 1013.6 |
| 20260904204529 | 25 | 210 | 3.2 | 4.8 | 0.00 | 0.91 | 0.91 | 63 | 1013.8 |
| 20260904204025 | 25 | 67 | 1.6 | 3.2 | 0.00 | 0.91 | 0.91 | 63 | 1013.7 |
| 20260904203520 | 25 | 208 | 3.2 | 3.2 | 0.00 | 0.91 | 0.91 | 62 | 1013.8 |
| 20260904203017 | 25 | 212 | 1.6 | 3.2 | 0.00 | 0.91 | 0.91 | 62 | 1013.8 |
| 20260904202512 | 25 | 247 | 4.8 | 8.0 | 0.00 | 0.91 | 0.91 | 61 | 1013.9 |
| 20260904202009 | 26 | 309 | 8.0 | 11.3 | 0.00 | 0.91 | 0.91 | 59 | 1014.0 |
| 20260904201503 | 25 | 346 | 6.4 | 9.7 | 0.00 | 0.91 | 0.91 | 60 | 1014.1 |
| 20260904200959 | 25 | 322 | 6.4 | 11.3 | 0.00 | 0.91 | 0.91 | 61 | 1014.1 |
| 20260904200457 | 25 | 308 | 4.8 | 8.0 | 0.00 | 0.91 | 0.91 | 61 | 1014.1 |
| 20260904195953 | 25 | 204 | 1.6 | 1.6 | 0.00 | 0.91 | 0.91 | 62 | 1014.0 |
| 20260904195451 | 25 | 262 | 3.2 | 3.2 | 0.00 | 0.91 | 0.91 | 62 | 1014.3 |
| 20260904194950 | 25 | 301 | 6.4 | 9.7 | 0.00 | 0.91 | 0.91 | 61 | 1014.4 |
| 20260904194445 | 25 | 264 | 8.0 | 9.7 | 0.00 | 0.91 | 0.91 | 62 | 1014.2 |
| 20260904193940 | 26 | 196 | 1.6 | 3.2 | 0.00 | 0.91 | 0.91 | 60 | 1014.0 |
| 20260904193436 | 25 | 226 | 3.2 | 3.2 | 0.00 | 0.91 | 0.91 | 62 | 1014.3 |
| 20260904192931 | 25 | 290 | 8.0 | 12.9 | 0.00 | 0.91 | 0.91 | 63 | 1014.3 |
| 20260904192426 | 25 | 340 | 6.4 | 9.7 | 0.00 | 0.91 | 0.91 | 63 | 1014.3 |
| 20260904191922 | 25 | 325 | 11.3 | 12.9 | 0.00 | 0.91 | 0.91 | 62 | 1014.4 |
| 20260904191419 | 25 | 206 | 1.6 | 1.6 | 0.00 | 0.91 | 0.91 | 65 | 1014.4 |
| 20260904190915 | 25 | 151 | 0.0 | 1.6 | 0.00 | 0.91 | 0.91 | 66 | 1014.4 |
| 20260904190410 | 25 | 283 | 9.7 | 12.9 | 0.00 | 0.91 | 0.91 | 63 | 1014.5 |
| 20260904185907 | 24 | 306 | 4.8 | 4.8 | 0.00 | 0.91 | 0.91 | 65 | 1014.3 |
| 20260904185402 | 25 | 53 | 6.4 | 9.7 | 0.00 | 0.91 | 0.91 | 62 | 1014.6 |
| 20260904184902 | 26 | 257 | 6.4 | 9.7 | 0.00 | 0.91 | 0.91 | 62 | 1014.2 |
| 20260904184356 | 25 | 202 | 1.6 | 1.6 | 0.00 | 0.91 | 0.91 | 63 | 1014.5 |
| 20260904183851 | 25 | 149 | 3.2 | 4.8 | 0.00 | 0.91 | 0.91 | 63 | 1014.4 |
| 20260904183341 | 25 | 238 | 4.8 | 8.0 | 0.00 | 0.91 | 0.91 | 61 | 1015.0 |
| 20260904182836 | 25 | 314 | 8.0 | 9.7 | 0.00 | 0.91 | 0.91 | 61 | 1014.7 |
| 20260904182331 | 25 | 184 | 1.6 | 1.6 | 0.00 | 0.91 | 0.91 | 63 | 1014.6 |
| 20260904181827 | 25 | 294 | 8.0 | 12.9 | 0.00 | 0.91 | 0.91 | 62 | 1014.8 |
| 20260904181327 | 25 | 233 | 3.2 | 3.2 | 0.00 | 0.91 | 0.91 | 63 | 1014.6 |
| 20260904180822 | 25 | 287 | 12.9 | 14.5 | 0.00 | 0.91 | 0.91 | 61 | 1014.9 |
| 20260904180317 | 25 | 267 | 8.0 | 9.7 | 0.00 | 0.91 | 0.91 | 64 | 1015.1 |
| 20260904175816 | 24 | 215 | 3.2 | 3.2 | 0.00 | 0.91 | 0.91 | 65 | 1015.0 |
| 20260904175314 | 25 | 296 | 8.0 | 9.7 | 0.00 | 0.91 | 0.91 | 64 | 1014.9 |
| 20260904174809 | 24 | 313 | 11.3 | 14.5 | 0.00 | 0.91 | 0.91 | 65 | 1015.2 |
| 20260904174305 | 23 | 192 | 0.0 | 1.6 | 0.00 | 0.91 | 0.91 | 68 | 1015.1 |
| 20260904173801 | 24 | 54 | 4.8 | 8.0 | 0.00 | 0.91 | 0.91 | 66 | 1015.3 |
| 20260904173256 | 25 | 306 | 11.3 | 16.1 | 0.00 | 0.91 | 0.91 | 64 | 1015.2 |
| 20260904172752 | 24 | 174 | 1.6 | 3.2 | 0.00 | 0.91 | 0.91 | 69 | 1015.2 |
| 20260904172251 | 25 | 318 | 8.0 | 11.3 | 0.00 | 0.91 | 0.91 | 67 | 1015.4 |
| 20260904171746 | 24 | 273 | 6.4 | 9.7 | 0.00 | 0.91 | 0.91 | 66 | 1015.4 |
| 20260904171241 | 23 | 240 | 9.7 | 11.3 | 0.00 | 0.91 | 0.91 | 68 | 1015.3 |
| 20260904170738 | 23 | 273 | 9.7 | 11.3 | 0.00 | 0.91 | 0.91 | 67 | 1015.3 |
| 20260904170233 | 23 | 275 | 9.7 | 14.5 | 0.00 | 0.91 | 0.91 | 67 | 1015.5 |
| 20260904165733 | 23 | 287 | 4.8 | 4.8 | 0.00 | 0.91 | 0.91 | 69 | 1015.5 |
| 20260904165227 | 23 | 267 | 9.7 | 12.9 | 0.00 | 0.91 | 0.91 | 67 | 1015.5 |
| 20260904164727 | 24 | 294 | 9.7 | 11.3 | 0.00 | 0.91 | 0.91 | 66 | 1015.4 |
| 20260904164222 | 24 | 279 | 4.8 | 9.7 | 0.00 | 0.91 | 0.91 | 65 | 1015.3 |
| 20260904163718 | 24 | 148 | 1.6 | 1.6 | 0.00 | 0.91 | 0.91 | 67 | 1015.2 |
| 20260904163213 | 24 | 250 | 4.8 | 8.0 | 0.00 | 0.91 | 0.91 | 66 | 1015.1 |
| 20260904162712 | 23 | 250 | 1.6 | 4.8 | 0.00 | 0.91 | 0.91 | 69 | 1015.3 |
| 20260904162207 | 24 | 291 | 4.8 | 9.7 | 0.00 | 0.91 | 0.91 | 69 | 1015.0 |
| 20260904161703 | 24 | 173 | 3.2 | 3.2 | 0.00 | 0.91 | 0.91 | 70 | 1015.3 |
| 20260904161158 | 24 | 191 | 4.8 | 4.8 | 0.00 | 0.91 | 0.91 | 69 | 1015.3 |
| 20260904160654 | 24 | 191 | 1.6 | 3.2 | 0.00 | 0.91 | 0.91 | 69 | 1015.2 |
| 20260904160149 | 24 | 194 | 1.6 | 3.2 | 0.00 | 0.91 | 0.91 | 71 | 1015.3 |
| 20260904155644 | 23 | 336 | 6.4 | 8.0 | 0.00 | 0.91 | 0.91 | 71 | 1015.3 |
| 20260904155143 | 23 | 232 | 4.8 | 8.0 | 0.00 | 0.91 | 0.91 | 71 | 1015.3 |
| 20260904154642 | 23 | 299 | 4.8 | 4.8 | 0.00 | 0.91 | 0.91 | 72 | 1015.4 |
| 20260904154136 | 23 | 319 | 6.4 | 8.0 | 0.00 | 0.91 | 0.91 | 73 | 1015.1 |
| 20260904153631 | 23 | 234 | 4.8 | 8.0 | 0.00 | 0.91 | 0.91 | 74 | 1015.4 |
| 20260904153127 | 23 | 237 | 3.2 | 4.8 | 0.00 | 0.91 | 0.91 | 73 | 1015.2 |
| 20260904152623 | 23 | 112 | 3.2 | 3.2 | 0.00 | 0.91 | 0.91 | 74 | 1015.6 |
| 20260904152119 | 23 | 309 | 3.2 | 4.8 | 0.00 | 0.91 | 0.91 | 74 | 1015.8 |
| 20260904151613 | 23 | 34 | 3.2 | 4.8 | 0.00 | 0.91 | 0.91 | 75 | 1015.7 |
| 20260904151112 | 23 | 246 | 4.8 | 4.8 | 0.00 | 0.91 | 0.91 | 75 | 1015.8 |
| 20260904150608 | 23 | 76 | 1.6 | 3.2 | 0.00 | 0.91 | 0.91 | 77 | 1015.6 |
| 20260904145601 | 22 | 270 | 3.2 | 3.2 | 0.00 | 0.91 | 0.91 | 77 | 1015.5 |
| 20260904145056 | 22 | 329 | 8.0 | 11.3 | 0.00 | 0.91 | 0.91 | 79 | 1015.7 |
| 20260904144552 | 22 | 198 | 3.2 | 4.8 | 0.00 | 0.91 | 0.91 | 79 | 1015.7 |
| 20260904144048 | 21 | 195 | 1.6 | 3.2 | 0.00 | 0.91 | 0.91 | 80 | 1015.7 |
| 20260904143544 | 21 | 284 | 8.0 | 9.7 | 0.00 | 0.91 | 0.91 | 79 | 1015.8 |
| 20260904143040 | 22 | 206 | 1.6 | 3.2 | 0.00 | 0.91 | 0.91 | 79 | 1015.7 |
| 20260904142536 | 22 | 230 | 4.8 | 4.8 | 0.00 | 0.91 | 0.91 | 78 | 1015.7 |
| 20260904142032 | 22 | 155 | 0.0 | 1.6 | 0.00 | 0.91 | 0.91 | 80 | 1015.7 |
| 20260904141526 | 22 | 148 | 1.6 | 3.2 | 0.00 | 0.91 | 0.91 | 80 | 1015.7 |
| 20260904141022 | 21 | 335 | 8.0 | 9.7 | 0.00 | 0.91 | 0.91 | 80 | 1015.6 |
| 20260904140516 | 21 | 107 | 1.6 | 3.2 | 0.00 | 0.91 | 0.91 | 83 | 1016.0 |
| 20260904140016 | 21 | 328 | 4.8 | 4.8 | 0.00 | 0.91 | 0.91 | 83 | 1015.8 |
| 20260904135516 | 21 | 147 | 0.0 | 0.0 | 0.00 | 0.91 | 0.91 | 85 | 1015.8 |
| 20260904135012 | 22 | 22 | 11.3 | 14.5 | 0.00 | 0.91 | 0.91 | 83 | 1015.5 |
| 20260904134507 | 21 | 187 | 1.6 | 3.2 | 0.00 | 0.91 | 0.91 | 85 | 1015.7 |
| 20260904134001 | 20 | 273 | 3.2 | 8.0 | 0.00 | 0.91 | 0.91 | 86 | 1015.8 |
| 20260904133455 | 21 | 198 | 3.2 | 3.2 | 0.00 | 0.91 | 0.91 | 86 | 1015.8 |
| 20260904132951 | 20 | 180 | 1.6 | 1.6 | 0.00 | 0.91 | 0.91 | 89 | 1015.8 |
| 20260904132446 | 19 | 168 | 1.6 | 3.2 | 0.00 | 0.91 | 0.91 | 93 | 1015.4 |
| 20260904131946 | 19 | 321 | 4.8 | 8.0 | 0.00 | 0.91 | 0.91 | 95 | 1015.6 |
| 20260904131441 | 18 | 195 | 1.6 | 1.6 | 0.00 | 0.91 | 0.91 | 95 | 1015.5 |
| 20260904130937 | 18 | 141 | 1.6 | 1.6 | 0.00 | 0.91 | 0.91 | 95 | 1015.7 |